Weather History for Martha's Vineyard, MA

Change the Weather History Date:

Thursday, November 24, 2011

  Actual Average Record
Temperature  
Mean Temperature 38 °F -  
Max Temperature 46 °F 49 °F 64 °F (1999)
Min Temperature 30 °F 33 °F 14 °F (1989)
Degree Days  
Heating Degree Days 27    
Moisture  
Dew Point 29 °F    
Average Humidity 72    
Maximum Humidity 88    
Minimum Humidity 51    
Precipitation  
Precipitation 0.00 in - - ()
Sea Level Pressure  
Sea Level Pressure 30.08 in    
Wind  
Wind Speed 11 mph (NNW)    
Max Wind Speed 18 mph    
Max Gust Speed 26 mph    
Visibility 10 miles    
Events      
Averages and records for this station are not official NWS values.
T = Trace of Precipitation, MM = Missing Value Source: NWS Daily Summary

Daily Weather History Graph

Daily Weather History Graph

Search for Another Location

Airport:

Trip Planner

Search our weather history database for the weather conditions in past years. The results will help you decide how hot, cold, wet, or windy it might be!

Date:

Astronomy

Nov. 24, 2011 Rise Set
Actual Time 6:41 AM EST 4:16 PM EST
Civil Twilight 6:10 AM EST 4:47 PM EST
Nautical Twilight 5:36 AM EST 5:21 PM EST
Astronomical Twilight 5:03 AM EST 5:54 PM EST
Moon 5:55 AM EST (11/24) 3:44 PM EST (11/24)
Length of Visible Light 10h 36m
Length of Day
9h 35m
Waning Crescent, 0% of the Moon is Illuminated
Nov 24
Waning Crescent
Nov 25
New
Dec 2
First Quarter
Dec 10
Full
Dec 17
Last Quarter

Hourly Weather History & Observations

Time (EST) Temp. Windchill Dew Point Humidity Pressure Visibility Wind Dir Wind Speed Gust Speed Precip Events Conditions
12:53 AM 39.9 °F 32.1 °F 34.0 °F 79% 29.88 in 10.0 mi North 13.8 mph 23.0 mph N/A   Overcast
1:23 AM 39.2 °F 29.8 °F 33.8 °F 81% 29.90 in 10.0 mi North 18.4 mph 25.3 mph N/A   Overcast
1:53 AM 39.9 °F 30.8 °F 32.0 °F 73% 29.92 in 10.0 mi North 18.4 mph 26.5 mph N/A   Overcast
2:53 AM 39.9 °F 32.5 °F 30.9 °F 70% 29.95 in 10.0 mi North 12.7 mph 21.9 mph N/A   Overcast
3:53 AM 39.9 °F 32.1 °F 30.0 °F 68% 29.98 in 10.0 mi North 13.8 mph 21.9 mph N/A   Overcast
4:53 AM 39.9 °F 32.9 °F 30.0 °F 68% 30.01 in 10.0 mi North 11.5 mph 21.9 mph N/A   Overcast
5:53 AM 37.0 °F 29.3 °F 30.9 °F 79% 30.04 in 10.0 mi NNW 11.5 mph - N/A   Overcast
6:53 AM 37.0 °F 29.3 °F 30.0 °F 76% 30.06 in 10.0 mi NNW 11.5 mph - N/A   Mostly Cloudy
7:35 AM 35.6 °F 27.1 °F 28.4 °F 75% 30.08 in 10.0 mi NNW 12.7 mph - N/A   Scattered Clouds
8:53 AM 39.0 °F 29.9 °F 28.9 °F 67% 30.10 in 10.0 mi NNW 17.3 mph 23.0 mph N/A   Clear
9:53 AM 41.0 °F 33.9 °F 30.0 °F 65% 30.12 in 10.0 mi NNW 12.7 mph 20.7 mph N/A   Partly Cloudy
10:53 AM 43.0 °F 38.2 °F 30.0 °F 60% 30.12 in 10.0 mi NNW 8.1 mph - N/A   Clear
11:53 AM 45.0 °F 40.1 °F 30.0 °F 56% 30.11 in 10.0 mi NW 9.2 mph - N/A   Clear
12:53 PM 45.0 °F 41.2 °F 28.9 °F 53% 30.10 in 10.0 mi Variable 6.9 mph - N/A   Clear
1:53 PM 46.0 °F 42.5 °F 28.9 °F 51% 30.11 in 10.0 mi WNW 6.9 mph - N/A   Clear
2:53 PM 46.0 °F 43.1 °F 30.0 °F 54% 30.12 in 10.0 mi West 5.8 mph - N/A   Clear
3:53 PM 44.1 °F 42.5 °F 30.9 °F 60% 30.14 in 10.0 mi WSW 3.5 mph - N/A   Clear
5:53 PM 34.0 °F - 28.0 °F 79% 30.16 in 10.0 mi Calm Calm - N/A   Clear
6:53 PM 33.1 °F - 27.0 °F 78% 30.17 in 10.0 mi Calm Calm - N/A   Clear
7:53 PM 30.0 °F 25.2 °F 26.1 °F 85% 30.18 in 10.0 mi WNW 4.6 mph - N/A   Clear
8:53 PM 30.9 °F - 27.0 °F 85% 30.18 in 10.0 mi Calm Calm - N/A   Clear
9:53 PM 32.0 °F - 28.0 °F 85% 30.18 in 10.0 mi Calm Calm - N/A   Clear
10:53 PM 30.0 °F 26.5 °F 27.0 °F 88% 30.16 in 10.0 mi SSW 3.5 mph - N/A   Clear
11:53 PM 30.0 °F - 26.1 °F 85% 30.15 in 10.0 mi Calm Calm - N/A   Clear